Year,Month,Day,Hour,Minute,Value (Times are PST for temperature in C)
2015,07,17,00,00,15.80
2015,07,17,00,01,15.80
2015,07,17,00,02,15.80
2015,07,17,00,03,15.80
2015,07,17,00,04,15.80
2015,07,17,00,05,15.80
2015,07,17,00,06,15.80
2015,07,17,00,07,15.70
2015,07,17,00,08,15.70
2015,07,17,00,09,15.60
2015,07,17,00,10,15.60
2015,07,17,00,11,15.50
2015,07,17,00,12,15.50
2015,07,17,00,13,15.50
2015,07,17,00,14,15.40
2015,07,17,00,15,15.40
2015,07,17,00,16,15.40
2015,07,17,00,17,15.40
2015,07,17,00,18,15.50
2015,07,17,00,19,15.50
2015,07,17,00,20,15.50
2015,07,17,00,21,15.50
2015,07,17,00,22,15.60
2015,07,17,00,23,15.60
2015,07,17,00,24,15.60
2015,07,17,00,25,15.60
2015,07,17,00,26,15.60
2015,07,17,00,27,15.60
2015,07,17,00,28,15.60
2015,07,17,00,29,15.60
2015,07,17,00,30,15.60
2015,07,17,00,31,15.60
2015,07,17,00,32,15.50
2015,07,17,00,33,15.50
2015,07,17,00,34,15.50
2015,07,17,00,35,15.50
2015,07,17,00,36,15.50
2015,07,17,00,37,15.40
2015,07,17,00,38,15.40
2015,07,17,00,39,15.40
2015,07,17,00,40,15.30
2015,07,17,00,41,15.30
2015,07,17,00,42,15.30
2015,07,17,00,43,15.30
2015,07,17,00,44,15.30
2015,07,17,00,45,15.20
2015,07,17,00,46,15.20
2015,07,17,00,47,15.10
2015,07,17,00,48,15.10
2015,07,17,00,49,15.00
2015,07,17,00,50,15.00
2015,07,17,00,51,15.00
2015,07,17,00,52,14.90
2015,07,17,00,53,14.90
2015,07,17,00,54,14.90
2015,07,17,00,55,14.80
2015,07,17,00,56,14.80
2015,07,17,00,57,14.80
2015,07,17,00,58,14.80
2015,07,17,00,59,14.80
2015,07,17,01,00,14.80
2015,07,17,01,01,14.80
2015,07,17,01,02,14.80
2015,07,17,01,03,14.80
2015,07,17,01,04,14.80
2015,07,17,01,05,14.80
2015,07,17,01,06,14.80
2015,07,17,01,07,14.70
2015,07,17,01,08,14.70
2015,07,17,01,09,14.70
2015,07,17,01,10,14.70
2015,07,17,01,11,14.60
2015,07,17,01,12,14.60
2015,07,17,01,13,14.60
2015,07,17,01,14,14.60
2015,07,17,01,15,14.60
2015,07,17,01,16,14.50
2015,07,17,01,17,14.50
2015,07,17,01,18,14.50
2015,07,17,01,19,14.50
2015,07,17,01,20,14.50
2015,07,17,01,21,14.40
2015,07,17,01,22,14.40
2015,07,17,01,23,14.40
2015,07,17,01,24,14.40
2015,07,17,01,25,14.40
2015,07,17,01,26,14.30
2015,07,17,01,27,14.30
2015,07,17,01,28,14.30
2015,07,17,01,29,14.30
2015,07,17,01,30,14.20
2015,07,17,01,31,14.20
2015,07,17,01,32,14.20
2015,07,17,01,33,14.20
2015,07,17,01,34,14.20
2015,07,17,01,35,14.20
2015,07,17,01,36,14.20
2015,07,17,01,37,14.10
2015,07,17,01,38,14.10
2015,07,17,01,39,14.10
2015,07,17,01,40,14.10
2015,07,17,01,41,14.10
2015,07,17,01,42,14.00
2015,07,17,01,43,14.00
2015,07,17,01,44,14.00
2015,07,17,01,45,14.00
2015,07,17,01,46,14.00
2015,07,17,01,47,14.00
2015,07,17,01,48,13.90
2015,07,17,01,49,13.90
2015,07,17,01,50,13.90
2015,07,17,01,51,13.90
2015,07,17,01,52,13.90
2015,07,17,01,53,13.90
2015,07,17,01,54,13.90
2015,07,17,01,55,13.90
2015,07,17,01,56,13.90
2015,07,17,01,57,13.90
2015,07,17,01,58,14.00
2015,07,17,01,59,14.00
2015,07,17,02,00,14.00
2015,07,17,02,01,14.00
2015,07,17,02,02,14.00
2015,07,17,02,03,14.00
2015,07,17,02,04,14.00
2015,07,17,02,05,14.00
2015,07,17,02,06,14.10
2015,07,17,02,07,14.10
2015,07,17,02,08,14.10
2015,07,17,02,09,14.10
2015,07,17,02,10,14.10
2015,07,17,02,11,14.10
2015,07,17,02,12,14.10
2015,07,17,02,13,14.10
2015,07,17,02,14,14.10
2015,07,17,02,15,14.10
2015,07,17,02,16,14.10
2015,07,17,02,17,14.20
2015,07,17,02,18,14.20
2015,07,17,02,19,14.20
2015,07,17,02,20,14.20
2015,07,17,02,21,14.20
2015,07,17,02,22,14.20
2015,07,17,02,23,14.10
2015,07,17,02,24,14.10
2015,07,17,02,25,14.10
2015,07,17,02,26,14.10
2015,07,17,02,27,14.10
2015,07,17,02,28,14.10
2015,07,17,02,29,14.10
2015,07,17,02,30,14.00
2015,07,17,02,31,14.00
2015,07,17,02,32,14.00
2015,07,17,02,33,14.00
2015,07,17,02,34,14.00
2015,07,17,02,35,13.90
2015,07,17,02,36,13.90
2015,07,17,02,37,13.90
2015,07,17,02,38,13.90
2015,07,17,02,39,13.80
2015,07,17,02,40,13.80
2015,07,17,02,41,13.80
2015,07,17,02,42,13.70
2015,07,17,02,43,13.70
2015,07,17,02,44,13.70
2015,07,17,02,45,13.70
2015,07,17,02,46,13.70
2015,07,17,02,47,13.60
2015,07,17,02,48,13.60
2015,07,17,02,49,13.60
2015,07,17,02,50,13.60
2015,07,17,02,51,13.60
2015,07,17,02,52,13.60
2015,07,17,02,53,13.50
2015,07,17,02,54,13.50
2015,07,17,02,55,13.50
2015,07,17,02,56,13.50
2015,07,17,02,57,13.50
2015,07,17,02,58,13.50
2015,07,17,02,59,13.50
2015,07,17,03,00,13.50
2015,07,17,03,01,13.50
2015,07,17,03,02,13.50
2015,07,17,03,03,13.50
2015,07,17,03,04,13.50
2015,07,17,03,05,13.40
2015,07,17,03,06,13.40
2015,07,17,03,07,13.40
2015,07,17,03,08,13.40
2015,07,17,03,09,13.40
2015,07,17,03,10,13.40
2015,07,17,03,11,13.40
2015,07,17,03,12,13.40
2015,07,17,03,13,13.40
2015,07,17,03,14,13.30
2015,07,17,03,15,13.30
2015,07,17,03,16,13.30
2015,07,17,03,17,13.30
2015,07,17,03,18,13.30
2015,07,17,03,19,13.30
2015,07,17,03,20,13.30
2015,07,17,03,21,13.30
2015,07,17,03,22,13.40
2015,07,17,03,23,13.40
2015,07,17,03,24,13.40
2015,07,17,03,25,13.40
2015,07,17,03,26,13.40
2015,07,17,03,27,13.40
2015,07,17,03,28,13.40
2015,07,17,03,29,13.40
2015,07,17,03,30,13.40
2015,07,17,03,31,13.40
2015,07,17,03,32,13.40
2015,07,17,03,33,13.40
2015,07,17,03,34,13.40
2015,07,17,03,35,13.40
2015,07,17,03,36,13.40
2015,07,17,03,37,13.40
2015,07,17,03,38,13.40
2015,07,17,03,39,13.40
2015,07,17,03,40,13.40
2015,07,17,03,41,13.40
2015,07,17,03,42,13.40
2015,07,17,03,43,13.50
2015,07,17,03,44,13.50
2015,07,17,03,45,13.50
2015,07,17,03,46,13.50
2015,07,17,03,47,13.50
2015,07,17,03,48,13.50
2015,07,17,03,49,13.40
2015,07,17,03,50,13.40
2015,07,17,03,51,13.40
2015,07,17,03,52,13.40
2015,07,17,03,53,13.40
2015,07,17,03,54,13.40
2015,07,17,03,55,13.30
2015,07,17,03,56,13.30
2015,07,17,03,57,13.30
2015,07,17,03,58,13.30
2015,07,17,03,59,13.30
2015,07,17,04,00,13.30
2015,07,17,04,01,13.30
2015,07,17,04,02,13.30
2015,07,17,04,03,13.30
2015,07,17,04,04,13.30
2015,07,17,04,05,13.30
2015,07,17,04,06,13.30
2015,07,17,04,07,13.30
2015,07,17,04,08,13.30
2015,07,17,04,09,13.30
2015,07,17,04,10,13.30
2015,07,17,04,11,13.30
2015,07,17,04,12,13.30
2015,07,17,04,13,13.30
2015,07,17,04,14,13.30
2015,07,17,04,15,13.30
2015,07,17,04,16,13.30
2015,07,17,04,17,13.30
2015,07,17,04,18,13.30
2015,07,17,04,19,13.30
2015,07,17,04,20,13.30
2015,07,17,04,21,13.30
2015,07,17,04,22,13.20
2015,07,17,04,23,13.20
2015,07,17,04,24,13.20
2015,07,17,04,25,13.20
2015,07,17,04,26,13.20
2015,07,17,04,27,13.20
2015,07,17,04,28,13.20
2015,07,17,04,29,13.20
2015,07,17,04,30,13.20
2015,07,17,04,31,13.20
2015,07,17,04,32,13.20
2015,07,17,04,33,13.20
2015,07,17,04,34,13.20
2015,07,17,04,35,13.20
2015,07,17,04,36,13.10
2015,07,17,04,37,13.10
2015,07,17,04,38,13.10
2015,07,17,04,39,13.10
2015,07,17,04,40,13.10
2015,07,17,04,41,13.10
2015,07,17,04,42,13.10
2015,07,17,04,43,13.10
2015,07,17,04,44,13.10
2015,07,17,04,45,13.10
2015,07,17,04,46,13.10
2015,07,17,04,47,13.10
2015,07,17,04,48,13.10
2015,07,17,04,49,13.10
2015,07,17,04,50,13.00
2015,07,17,04,51,13.00
2015,07,17,04,52,13.00
2015,07,17,04,53,13.00
2015,07,17,04,54,13.00
2015,07,17,04,55,13.00
2015,07,17,04,56,13.00
2015,07,17,04,57,13.00
2015,07,17,04,58,13.00
2015,07,17,04,59,13.00
2015,07,17,05,00,13.00
2015,07,17,05,01,12.90
2015,07,17,05,02,12.90
2015,07,17,05,03,12.90
2015,07,17,05,04,12.90
2015,07,17,05,05,12.90
2015,07,17,05,06,12.90
2015,07,17,05,07,12.90
2015,07,17,05,08,12.90
2015,07,17,05,09,12.90
2015,07,17,05,10,12.90
2015,07,17,05,11,12.80
2015,07,17,05,12,12.80
2015,07,17,05,13,12.80
2015,07,17,05,14,12.80
2015,07,17,05,15,12.80
2015,07,17,05,16,12.80
2015,07,17,05,17,12.80
2015,07,17,05,18,12.80
2015,07,17,05,19,12.80
2015,07,17,05,20,12.80
2015,07,17,05,21,12.80
2015,07,17,05,22,12.80
2015,07,17,05,23,12.80
2015,07,17,05,24,12.80
2015,07,17,05,25,12.80
2015,07,17,05,26,12.80
2015,07,17,05,27,12.70
2015,07,17,05,28,12.70
2015,07,17,05,29,12.70
2015,07,17,05,30,12.70
2015,07,17,05,31,12.70
2015,07,17,05,32,12.70
2015,07,17,05,33,12.70
2015,07,17,05,34,12.70
2015,07,17,05,35,12.70
2015,07,17,05,36,12.70
2015,07,17,05,37,12.70
2015,07,17,05,38,12.60
2015,07,17,05,39,12.60
2015,07,17,05,40,12.60
2015,07,17,05,41,12.60
2015,07,17,05,42,12.60
2015,07,17,05,43,12.50
2015,07,17,05,44,12.50
2015,07,17,05,45,12.50
2015,07,17,05,46,12.50
2015,07,17,05,47,12.50
2015,07,17,05,48,12.50
2015,07,17,05,49,12.50
2015,07,17,05,50,12.50
2015,07,17,05,51,12.50
2015,07,17,05,52,12.50
2015,07,17,05,53,12.50
2015,07,17,05,54,12.50
2015,07,17,05,55,12.50
2015,07,17,05,56,12.50
2015,07,17,05,57,12.50
2015,07,17,05,58,12.50
2015,07,17,05,59,12.60
2015,07,17,06,00,12.60
2015,07,17,06,01,12.60
2015,07,17,06,02,12.60
2015,07,17,06,03,12.60
2015,07,17,06,04,12.60
2015,07,17,06,05,12.60
2015,07,17,06,06,12.60
2015,07,17,06,07,12.60
2015,07,17,06,08,12.60
2015,07,17,06,09,12.60
2015,07,17,06,10,12.70
2015,07,17,06,11,12.70
2015,07,17,06,12,12.70
2015,07,17,06,13,12.70
2015,07,17,06,14,12.80
2015,07,17,06,15,12.80
2015,07,17,06,16,12.80
2015,07,17,06,17,12.80
2015,07,17,06,18,12.80
2015,07,17,06,19,12.80
2015,07,17,06,20,12.90
2015,07,17,06,21,12.90
2015,07,17,06,22,12.90
2015,07,17,06,23,12.90
2015,07,17,06,24,12.90
2015,07,17,06,25,12.90
2015,07,17,06,26,12.90
2015,07,17,06,27,12.90
2015,07,17,06,28,12.90
2015,07,17,06,29,12.90
2015,07,17,06,30,12.90
2015,07,17,06,31,12.90
2015,07,17,06,32,12.90
2015,07,17,06,33,13.00
2015,07,17,06,34,13.00
2015,07,17,06,35,13.00
2015,07,17,06,36,13.10
2015,07,17,06,37,13.10
2015,07,17,06,38,13.10
2015,07,17,06,39,13.10
2015,07,17,06,40,13.20
2015,07,17,06,41,13.20
2015,07,17,06,42,13.20
2015,07,17,06,43,13.20
2015,07,17,06,44,13.30
2015,07,17,06,45,13.30
2015,07,17,06,46,13.30
2015,07,17,06,47,13.30
2015,07,17,06,48,13.40
2015,07,17,06,49,13.40
2015,07,17,06,50,13.40
2015,07,17,06,51,13.50
2015,07,17,06,52,13.50
2015,07,17,06,53,13.60
2015,07,17,06,54,13.60
2015,07,17,06,55,13.70
2015,07,17,06,56,13.70
2015,07,17,06,57,13.70
2015,07,17,06,58,13.70
2015,07,17,06,59,13.80
2015,07,17,07,00,13.80
2015,07,17,07,01,13.90
2015,07,17,07,02,13.90
2015,07,17,07,03,14.00
2015,07,17,07,04,14.10
2015,07,17,07,05,14.20
2015,07,17,07,06,14.20
2015,07,17,07,07,14.20
2015,07,17,07,08,14.30
2015,07,17,07,09,14.40
2015,07,17,07,10,14.40
2015,07,17,07,11,14.50
2015,07,17,07,12,14.60
2015,07,17,07,13,14.60
2015,07,17,07,14,14.70
2015,07,17,07,15,14.70
2015,07,17,07,16,14.70
2015,07,17,07,17,14.80
2015,07,17,07,18,14.80
2015,07,17,07,19,14.80
2015,07,17,07,20,14.90
2015,07,17,07,21,15.00
2015,07,17,07,22,15.00
2015,07,17,07,23,15.10
2015,07,17,07,24,15.20
2015,07,17,07,25,15.30
2015,07,17,07,26,15.30
2015,07,17,07,27,15.40
2015,07,17,07,28,15.50
2015,07,17,07,29,15.60
2015,07,17,07,30,15.70
2015,07,17,07,31,15.80
2015,07,17,07,32,15.80
2015,07,17,07,33,15.90
2015,07,17,07,34,16.10
2015,07,17,07,35,16.10
2015,07,17,07,36,16.20
2015,07,17,07,37,16.20
2015,07,17,07,38,16.30
2015,07,17,07,39,16.30
2015,07,17,07,40,16.40
2015,07,17,07,41,16.50
2015,07,17,07,42,16.60
2015,07,17,07,43,16.70
2015,07,17,07,44,16.80
2015,07,17,07,45,16.80
2015,07,17,07,46,16.90
2015,07,17,07,47,16.90
2015,07,17,07,48,17.00
2015,07,17,07,49,17.00
2015,07,17,07,50,17.10
2015,07,17,07,51,17.20
2015,07,17,07,52,17.20
2015,07,17,07,53,17.30
2015,07,17,07,54,17.30
2015,07,17,07,55,17.40
2015,07,17,07,56,17.50
2015,07,17,07,57,17.60
2015,07,17,07,58,17.70
2015,07,17,07,59,17.80
2015,07,17,08,00,17.90
2015,07,17,08,01,17.90
2015,07,17,08,02,18.00
2015,07,17,08,03,18.10
2015,07,17,08,04,18.20
2015,07,17,08,05,18.30
2015,07,17,08,06,18.40
2015,07,17,08,07,18.50
2015,07,17,08,08,18.60
2015,07,17,08,09,18.60
2015,07,17,08,10,18.70
2015,07,17,08,11,18.70
2015,07,17,08,12,18.80
2015,07,17,08,13,18.80
2015,07,17,08,14,18.80
2015,07,17,08,15,18.80
2015,07,17,08,16,18.80
2015,07,17,08,17,18.80
2015,07,17,08,18,18.80
2015,07,17,08,19,18.80
2015,07,17,08,20,18.70
2015,07,17,08,21,18.70
2015,07,17,08,22,18.60
2015,07,17,08,23,18.60
2015,07,17,08,24,18.70
2015,07,17,08,25,18.70
2015,07,17,08,26,18.70
2015,07,17,08,27,18.70
2015,07,17,08,28,18.70
2015,07,17,08,29,18.70
2015,07,17,08,30,18.80
2015,07,17,08,31,18.90
2015,07,17,08,32,19.00
2015,07,17,08,33,19.10
2015,07,17,08,34,19.10
2015,07,17,08,35,19.20
2015,07,17,08,36,19.20
2015,07,17,08,37,19.20
2015,07,17,08,38,19.20
2015,07,17,08,39,19.20
2015,07,17,08,40,19.20
2015,07,17,08,41,19.20
2015,07,17,08,42,19.20
2015,07,17,08,43,19.10
2015,07,17,08,44,19.10
2015,07,17,08,45,19.10
2015,07,17,08,46,19.10
2015,07,17,08,47,19.20
2015,07,17,08,48,19.20
2015,07,17,08,49,19.10
2015,07,17,08,50,19.10
2015,07,17,08,51,18.90
2015,07,17,08,52,18.90
2015,07,17,08,53,18.80
2015,07,17,08,54,18.80
2015,07,17,08,55,18.90
2015,07,17,08,56,18.80
2015,07,17,08,57,18.90
2015,07,17,08,58,18.90
2015,07,17,08,59,18.90
2015,07,17,09,00,18.90
2015,07,17,09,01,18.90
2015,07,17,09,02,19.00
2015,07,17,09,03,19.10
2015,07,17,09,04,19.10
2015,07,17,09,05,19.10
2015,07,17,09,06,19.20
2015,07,17,09,07,19.30
2015,07,17,09,08,19.30
2015,07,17,09,09,19.20
2015,07,17,09,10,19.20
2015,07,17,09,11,19.20
2015,07,17,09,12,19.20
2015,07,17,09,13,19.20
2015,07,17,09,14,19.20
2015,07,17,09,15,19.20
2015,07,17,09,16,19.10
2015,07,17,09,17,19.10
2015,07,17,09,18,19.10
2015,07,17,09,19,19.10
2015,07,17,09,20,19.10
2015,07,17,09,21,19.00
2015,07,17,09,22,18.90
2015,07,17,09,23,18.90
2015,07,17,09,24,18.90
2015,07,17,09,25,18.90
2015,07,17,09,26,18.90
2015,07,17,09,27,19.00
2015,07,17,09,28,19.10
2015,07,17,09,29,19.10
2015,07,17,09,30,19.20
2015,07,17,09,31,19.30
2015,07,17,09,32,19.30
2015,07,17,09,33,19.40
2015,07,17,09,34,19.40
2015,07,17,09,35,19.60
2015,07,17,09,36,19.60
2015,07,17,09,37,19.60
2015,07,17,09,38,19.50
2015,07,17,09,39,19.40
2015,07,17,09,40,19.40
2015,07,17,09,41,19.40
2015,07,17,09,42,19.40
2015,07,17,09,43,19.50
2015,07,17,09,44,19.50
2015,07,17,09,45,19.50
2015,07,17,09,46,19.50
2015,07,17,09,47,19.60
2015,07,17,09,48,19.70
2015,07,17,09,49,19.80
2015,07,17,09,50,20.00
2015,07,17,09,51,20.10
2015,07,17,09,52,20.10
2015,07,17,09,53,20.00
2015,07,17,09,54,19.90
2015,07,17,09,55,19.90
2015,07,17,09,56,19.90
2015,07,17,09,57,19.90
2015,07,17,09,58,19.90
2015,07,17,09,59,19.80
2015,07,17,10,00,19.70
2015,07,17,10,01,19.70
2015,07,17,10,02,19.70
2015,07,17,10,03,19.70
2015,07,17,10,04,19.70
2015,07,17,10,05,19.90
2015,07,17,10,06,20.00
2015,07,17,10,07,20.10
2015,07,17,10,08,20.30
2015,07,17,10,09,20.30
2015,07,17,10,10,20.30
2015,07,17,10,11,20.30
2015,07,17,10,12,20.40
2015,07,17,10,13,20.50
2015,07,17,10,14,20.50
2015,07,17,10,15,20.60
2015,07,17,10,16,20.80
2015,07,17,10,17,20.90
2015,07,17,10,18,20.90
2015,07,17,10,19,20.90
2015,07,17,10,20,20.70
2015,07,17,10,21,20.70
2015,07,17,10,22,20.70
2015,07,17,10,23,20.70
2015,07,17,10,24,20.70
2015,07,17,10,25,20.70
2015,07,17,10,26,20.70
2015,07,17,10,27,20.70
2015,07,17,10,28,20.50
2015,07,17,10,29,20.40
2015,07,17,10,30,20.20
2015,07,17,10,31,20.30
2015,07,17,10,32,20.40
2015,07,17,10,33,20.60
2015,07,17,10,34,20.60
2015,07,17,10,35,20.60
2015,07,17,10,36,20.70
2015,07,17,10,37,20.80
2015,07,17,10,38,21.00
2015,07,17,10,39,21.00
2015,07,17,10,40,21.10
2015,07,17,10,41,21.20
2015,07,17,10,42,21.10
2015,07,17,10,43,21.10
2015,07,17,10,44,21.10
2015,07,17,10,45,21.10
2015,07,17,10,46,21.20
2015,07,17,10,47,21.30
2015,07,17,10,48,21.20
2015,07,17,10,49,21.20
2015,07,17,10,50,21.20
2015,07,17,10,51,21.20
2015,07,17,10,52,21.20
2015,07,17,10,53,21.30
2015,07,17,10,54,21.30
2015,07,17,10,55,21.30
2015,07,17,10,56,21.30
2015,07,17,10,57,21.40
2015,07,17,10,58,21.60
2015,07,17,10,59,21.70
2015,07,17,11,00,22.00
2015,07,17,11,01,22.20
2015,07,17,11,02,22.30
2015,07,17,11,03,22.40
2015,07,17,11,04,22.40
2015,07,17,11,05,22.40
2015,07,17,11,06,22.40
2015,07,17,11,07,22.50
2015,07,17,11,08,22.60
2015,07,17,11,09,22.60
2015,07,17,11,10,22.70
2015,07,17,11,11,22.80
2015,07,17,11,12,22.90
2015,07,17,11,13,22.90
2015,07,17,11,14,22.90
2015,07,17,11,15,22.90
2015,07,17,11,16,22.90
2015,07,17,11,17,22.90
2015,07,17,11,18,22.90
2015,07,17,11,19,22.90
2015,07,17,11,20,23.00
2015,07,17,11,21,23.10
2015,07,17,11,22,23.20
2015,07,17,11,23,23.20
2015,07,17,11,24,23.20
2015,07,17,11,25,23.20
2015,07,17,11,26,23.20
2015,07,17,11,27,23.20
2015,07,17,11,28,23.20
2015,07,17,11,29,23.20
2015,07,17,11,30,23.30
2015,07,17,11,31,23.30
2015,07,17,11,32,23.30
2015,07,17,11,33,23.30
2015,07,17,11,34,23.30
2015,07,17,11,35,23.40
2015,07,17,11,36,23.50
2015,07,17,11,37,23.70
2015,07,17,11,38,23.70
2015,07,17,11,39,23.80
2015,07,17,11,40,23.80
2015,07,17,11,41,23.80
2015,07,17,11,42,23.90
2015,07,17,11,43,23.90
2015,07,17,11,44,24.00
2015,07,17,11,45,24.00
2015,07,17,11,46,23.90
2015,07,17,11,47,23.90
2015,07,17,11,48,23.80
2015,07,17,11,49,23.80
2015,07,17,11,50,23.80
2015,07,17,11,51,23.80
2015,07,17,11,52,23.80
2015,07,17,11,53,23.80
2015,07,17,11,54,23.80
2015,07,17,11,55,23.80
2015,07,17,11,56,23.80
2015,07,17,11,57,23.90
2015,07,17,11,58,23.90
2015,07,17,11,59,23.90
2015,07,17,12,00,23.90
2015,07,17,12,01,24.00
2015,07,17,12,02,24.10
2015,07,17,12,03,24.20
2015,07,17,12,04,24.20
2015,07,17,12,05,24.30
2015,07,17,12,06,24.30
2015,07,17,12,07,24.30
2015,07,17,12,08,24.30
2015,07,17,12,09,24.10
2015,07,17,12,10,24.10
2015,07,17,12,11,24.10
2015,07,17,12,12,24.10
2015,07,17,12,13,24.10
2015,07,17,12,14,24.10
2015,07,17,12,15,24.10
2015,07,17,12,16,24.30
2015,07,17,12,17,24.40
2015,07,17,12,18,24.50
2015,07,17,12,19,24.50
2015,07,17,12,20,24.70
2015,07,17,12,21,24.80
2015,07,17,12,22,24.80
2015,07,17,12,23,24.90
2015,07,17,12,24,24.90
2015,07,17,12,25,25.00
2015,07,17,12,26,25.20
2015,07,17,12,27,25.20
2015,07,17,12,28,25.20
2015,07,17,12,29,25.20
2015,07,17,12,30,25.30
2015,07,17,12,31,25.30
2015,07,17,12,32,25.20
2015,07,17,12,33,25.10
2015,07,17,12,34,25.10
2015,07,17,12,35,25.10
2015,07,17,12,36,24.80
2015,07,17,12,37,24.50
2015,07,17,12,38,24.40
2015,07,17,12,39,24.20
2015,07,17,12,40,24.10
2015,07,17,12,41,24.10
2015,07,17,12,42,24.10
2015,07,17,12,43,24.00
2015,07,17,12,44,24.00
2015,07,17,12,45,24.00
2015,07,17,12,46,23.80
2015,07,17,12,47,23.60
2015,07,17,12,48,23.40
2015,07,17,12,49,23.30
2015,07,17,12,50,23.20
2015,07,17,12,51,23.10
2015,07,17,12,52,23.10
2015,07,17,12,53,22.90
2015,07,17,12,54,22.80
2015,07,17,12,55,22.70
2015,07,17,12,56,22.60
2015,07,17,12,57,22.40
2015,07,17,12,58,22.20
2015,07,17,12,59,21.90
2015,07,17,13,00,21.80
2015,07,17,13,01,21.80
2015,07,17,13,02,21.80
2015,07,17,13,03,22.00
2015,07,17,13,04,22.10
2015,07,17,13,05,22.20
2015,07,17,13,06,22.30
2015,07,17,13,07,22.40
2015,07,17,13,08,22.30
2015,07,17,13,09,22.30
2015,07,17,13,10,22.30
2015,07,17,13,11,22.40
2015,07,17,13,12,22.40
2015,07,17,13,13,22.30
2015,07,17,13,14,22.30
2015,07,17,13,15,22.30
2015,07,17,13,16,22.30
2015,07,17,13,17,22.10
2015,07,17,13,18,22.10
2015,07,17,13,19,22.00
2015,07,17,13,20,22.00
2015,07,17,13,21,22.00
2015,07,17,13,22,21.90
2015,07,17,13,23,21.90
2015,07,17,13,24,21.90
2015,07,17,13,25,22.00
2015,07,17,13,26,22.00
2015,07,17,13,27,22.00
2015,07,17,13,28,22.20
2015,07,17,13,29,22.40
2015,07,17,13,30,22.60
2015,07,17,13,31,22.70
2015,07,17,13,32,22.90
2015,07,17,13,33,22.90
2015,07,17,13,34,23.00
2015,07,17,13,35,23.20
2015,07,17,13,36,23.20
2015,07,17,13,37,23.20
2015,07,17,13,38,23.20
2015,07,17,13,39,23.20
2015,07,17,13,40,23.30
2015,07,17,13,41,23.50
2015,07,17,13,42,23.70
2015,07,17,13,43,23.70
2015,07,17,13,44,23.80
2015,07,17,13,45,23.90
2015,07,17,13,46,24.10
2015,07,17,13,47,24.10
2015,07,17,13,48,24.10
2015,07,17,13,49,24.10
2015,07,17,13,50,24.20
2015,07,17,13,51,24.40
2015,07,17,13,52,24.50
2015,07,17,13,53,24.50
2015,07,17,13,54,24.70
2015,07,17,13,55,24.50
2015,07,17,13,56,24.40
2015,07,17,13,57,24.40
2015,07,17,13,58,24.10
2015,07,17,13,59,23.90
2015,07,17,14,00,23.70
2015,07,17,14,01,23.60
2015,07,17,14,02,23.50
2015,07,17,14,03,23.40
2015,07,17,14,04,23.50
2015,07,17,14,05,23.70
2015,07,17,14,06,23.70
2015,07,17,14,07,23.90
2015,07,17,14,08,24.00
2015,07,17,14,09,24.30
2015,07,17,14,10,24.40
2015,07,17,14,11,24.40
2015,07,17,14,12,24.40
2015,07,17,14,13,24.40
2015,07,17,14,14,24.40
2015,07,17,14,15,24.40
2015,07,17,14,16,24.30
2015,07,17,14,17,24.30
2015,07,17,14,18,24.40
2015,07,17,14,19,24.50
2015,07,17,14,20,24.70
2015,07,17,14,21,24.90
2015,07,17,14,22,25.10
2015,07,17,14,23,25.20
2015,07,17,14,24,25.30
2015,07,17,14,25,25.40
2015,07,17,14,26,25.40
2015,07,17,14,27,25.60
2015,07,17,14,28,25.70
2015,07,17,14,29,25.80
2015,07,17,14,30,25.80
2015,07,17,14,31,25.80
2015,07,17,14,32,25.70
2015,07,17,14,33,25.60
2015,07,17,14,34,25.30
2015,07,17,14,35,25.10
2015,07,17,14,36,25.20
2015,07,17,14,37,25.40
2015,07,17,14,38,25.40
2015,07,17,14,39,25.50
2015,07,17,14,40,25.50
2015,07,17,14,41,25.60
2015,07,17,14,42,25.60
2015,07,17,14,43,25.50
2015,07,17,14,44,25.40
2015,07,17,14,45,25.20
2015,07,17,14,46,25.00
2015,07,17,14,47,24.90
2015,07,17,14,48,24.80
2015,07,17,14,49,24.80
2015,07,17,14,50,24.60
2015,07,17,14,51,24.60
2015,07,17,14,52,24.50
2015,07,17,14,53,24.40
2015,07,17,14,54,24.40
2015,07,17,14,55,24.50
2015,07,17,14,56,24.50
2015,07,17,14,57,24.70
2015,07,17,14,58,24.90
2015,07,17,14,59,25.00
2015,07,17,15,00,25.10
2015,07,17,15,01,25.10
2015,07,17,15,02,25.10
2015,07,17,15,03,25.10
2015,07,17,15,04,25.20
2015,07,17,15,05,25.30
2015,07,17,15,06,25.40
2015,07,17,15,07,25.60
2015,07,17,15,08,25.60
2015,07,17,15,09,25.70
2015,07,17,15,10,25.70
2015,07,17,15,11,25.80
2015,07,17,15,12,25.90
2015,07,17,15,13,26.10
2015,07,17,15,14,26.30
2015,07,17,15,15,26.40
2015,07,17,15,16,26.60
2015,07,17,15,17,26.70
2015,07,17,15,18,26.70
2015,07,17,15,19,26.90
2015,07,17,15,20,27.10
2015,07,17,15,21,27.20
2015,07,17,15,22,27.30
2015,07,17,15,23,27.30
2015,07,17,15,24,27.30
2015,07,17,15,25,27.30
2015,07,17,15,26,27.30
2015,07,17,15,27,27.30
2015,07,17,15,28,27.20
2015,07,17,15,29,27.10
2015,07,17,15,30,27.10
2015,07,17,15,31,27.20
2015,07,17,15,32,27.30
2015,07,17,15,33,27.30
2015,07,17,15,34,27.50
2015,07,17,15,35,27.60
2015,07,17,15,36,27.70
2015,07,17,15,37,27.90
2015,07,17,15,38,27.80
2015,07,17,15,39,27.60
2015,07,17,15,40,27.50
2015,07,17,15,41,27.30
2015,07,17,15,42,27.20
2015,07,17,15,43,27.20
2015,07,17,15,44,27.10
2015,07,17,15,45,27.10
2015,07,17,15,46,27.10
2015,07,17,15,47,27.00
2015,07,17,15,48,26.70
2015,07,17,15,49,26.30
2015,07,17,15,50,25.90
2015,07,17,15,51,25.90
2015,07,17,15,52,26.00
2015,07,17,15,53,26.10
2015,07,17,15,54,26.30
2015,07,17,15,55,26.50
2015,07,17,15,56,26.60
2015,07,17,15,57,26.70
2015,07,17,15,58,26.60
2015,07,17,15,59,26.50
2015,07,17,16,00,26.30
2015,07,17,16,01,26.40
2015,07,17,16,02,26.40
2015,07,17,16,03,26.20
2015,07,17,16,04,25.90
2015,07,17,16,05,26.00
2015,07,17,16,06,26.10
2015,07,17,16,07,26.20
2015,07,17,16,08,26.40
2015,07,17,16,09,26.40
2015,07,17,16,10,26.30
2015,07,17,16,11,26.10
2015,07,17,16,12,25.90
2015,07,17,16,13,25.90
2015,07,17,16,14,25.90
2015,07,17,16,15,25.90
2015,07,17,16,16,25.90
2015,07,17,16,17,25.80
2015,07,17,16,18,25.70
2015,07,17,16,19,25.70
2015,07,17,16,20,25.70
2015,07,17,16,21,25.70
2015,07,17,16,22,25.70
2015,07,17,16,23,25.70
2015,07,17,16,24,25.70
2015,07,17,16,25,25.70
2015,07,17,16,26,25.80
2015,07,17,16,27,25.80
2015,07,17,16,28,25.80
2015,07,17,16,29,25.60
2015,07,17,16,30,25.50
2015,07,17,16,31,25.50
2015,07,17,16,32,25.60
2015,07,17,16,33,25.70
2015,07,17,16,34,25.80
2015,07,17,16,35,25.90
2015,07,17,16,36,26.00
2015,07,17,16,37,26.00
2015,07,17,16,38,26.10
2015,07,17,16,39,26.20
2015,07,17,16,40,26.10
2015,07,17,16,41,26.10
2015,07,17,16,42,26.10
2015,07,17,16,43,26.10
2015,07,17,16,44,25.90
2015,07,17,16,45,25.80
2015,07,17,16,46,25.70
2015,07,17,16,47,25.60
2015,07,17,16,48,25.60
2015,07,17,16,49,25.60
2015,07,17,16,50,25.70
2015,07,17,16,51,25.80
2015,07,17,16,52,25.80
2015,07,17,16,53,25.90
2015,07,17,16,54,25.90
2015,07,17,16,55,25.90
2015,07,17,16,56,25.90
2015,07,17,16,57,25.80
2015,07,17,16,58,25.90
2015,07,17,16,59,25.90
2015,07,17,17,00,25.90
2015,07,17,17,01,26.00
2015,07,17,17,02,26.00
2015,07,17,17,03,26.00
2015,07,17,17,04,26.00
2015,07,17,17,05,26.10
2015,07,17,17,06,26.10
2015,07,17,17,07,26.00
2015,07,17,17,08,26.00
2015,07,17,17,09,25.90
2015,07,17,17,10,25.90
2015,07,17,17,11,25.90
2015,07,17,17,12,26.00
2015,07,17,17,13,26.10
2015,07,17,17,14,26.30
2015,07,17,17,15,26.40
2015,07,17,17,16,26.50
2015,07,17,17,17,26.60
2015,07,17,17,18,26.60
2015,07,17,17,19,26.60